Simultaneous Nadir Overpasses (SNOs) Predictions

Prediction of SNOs between FY3D and NOAA-19 Satellite Orbit:

Table of predicted SNOs for the next 14.0 days since TLE Epoch: 11/21/2020
Index Date (FY3D) Time (FY3D) Lat,Lon (FY3D) SZA (FY3D ) Date (NOAA-19) Time (NOAA-19) Lat,Lon (NOAA-19) SZA (NOAA-19 ) Distance(km) Time Diff (sec)
1 11/25/2020 21:02:27 -78.98, 15.63 79.10 11/25/2020 21:01:22 -78.99, 15.64 79.08 0.71 65
2 11/25/2020 21:53:12 79.01,-177.23 100.95 11/25/2020 21:52:17 78.97,-177.18 100.93 3.57 55
3 11/25/2020 22:43:56 -78.98, -9.74 79.09 11/25/2020 22:43:22 -79.00, -9.74 79.06 2.49 34
4 11/25/2020 23:34:41 79.00, 157.40 100.96 11/25/2020 23:34:17 78.99, 157.45 100.95 1.84 24
5 11/26/2020 00:25:26 -79.01, -35.35 79.03 11/26/2020 00:25:23 -78.98, -35.37 79.05 3.31 3
6 11/26/2020 01:16:10 79.00, 132.04 100.97 11/26/2020 01:16:17 79.01, 132.07 100.97 0.87 7
7 11/26/2020 02:06:55 -79.01, -60.72 79.01 11/26/2020 02:07:23 -79.00, -60.75 79.03 1.64 28
8 11/26/2020 02:57:39 79.00, 106.67 100.98 11/26/2020 02:58:17 79.02, 106.70 100.99 2.19 38
9 11/26/2020 03:48:24 -79.01, -86.08 79.00 11/26/2020 03:49:23 -79.01, -86.12 79.01 0.98 59
10 11/26/2020 04:39:09 79.04, 81.05 101.05 11/26/2020 04:40:18 79.00, 81.07 100.99 3.67 69
